Terminal Aerodrome Forecast
Issued by NWS

Home | Current Version | Previous Version | Text Only | Print | Product List | Glossary On
Versions: 1 2 3 4 5 6 7 8 9 10 11 12 13 14 15 16 17 18 19 20 21 22 23 24 25 26 27 28 29 30 31 32 33 34 35 36 37 38 39 40 41 42 43 44 45 46 47 48 49 50
000
FTUS42 KMFL 100529
TAFTMB
TAF
KTMB 100529Z 1006/1106 00000KT P6SM FEW250
     FM101300 00000KT P6SM VCSH SCT050 OVC250
     FM101600 13005KT P6SM VCTS SCT050CB
     FM110000 00000KT P6SM SCT250=

USA.gov is the U.S. government's official web portal to all federal, state and local government web resources and services.